Regional Weather Roundup
Issued by NWS Midland/Odessa, TX

Home | Current Version | Previous Version | Text Only | Print | Product List | Glossary On
Versions: 1 2 3 4 5 6 7 8 9 10 11 12 13 14 15 16 17 18 19 20 21 22 23 24 25 26 27 28 29 30 31 32 33 34 35 36 37 38 39 40 41 42 43 44 45 46 47 48 49 50
000
ASUS44 KMAF 250510
RWRMAF
MIDLAND AREA WEATHER ROUNDUP
NATIONAL WEATHER SERVICE MIDLAND TX
1200 AM CDT WED APR 25 2018

...IN SOUTHWEST TEXAS AND SOUTHEAST NEW MEXICO...

CITY           SKY/WX    TMP DP  RH WIND       PRES   REMARKS
ALPINE         CLEAR     71  43  36 CALM      30.13S
ANDREWS        FAIR      63  47  57 NE22G32   30.11R
ARTESIA        PTCLDY    54  39  58 N20G31    30.22R
BIG SPRING     MOCLDY    66  54  64 NE23G30   30.08R
CARLSBAD       CLOUDY    62  41  46 N21G31    30.14R
DRYDEN           N/A     79  58  48 SE13G22   29.95R
FORT STOCKTON  PTCLDY    77  50  38 SE15      29.97S
GUAD PASS      PTCLDY    68  34  28 NE26G35   30.11F
HOBBS          PTCLDY    52  39  62 NE28G38   30.14R
LAMESA         FAIR      59  45  58 NE26G35   30.15R
MARFA          CLEAR     61  31  32 NE5       30.11S
MIDLAND AIRPK    N/A     70  52  52 NE18      30.06R
MIDLAND INTL   CLEAR     70  51  51 NE21      30.03R
ODESSA         CLEAR     70  49  47 NE24G33   30.04R
PECOS          CLEAR     73  38  27 N5        29.95R
PRESIDIO       FAIR      82  33  17 NE6       29.95S
SEMINOLE       CLEAR     56  42  58 NE22G35   30.16R
SNYDER         CLOUDY    64  56  74 NE14      30.12R
WINK           CLEAR     77  41  27 N15       29.98R
$$
...OTHER STATIONS IN TEXAS...

CITY           SKY/WX    TMP DP  RH WIND       PRES   REMARKS
ABILENE        TSTM      63  57  81 SE20      30.09R
AMARILLO       CLOUDY    45  36  70 N28G40    30.30R WCI  36
AUSTIN         PTCLDY    60  57  89 CALM      30.06R
BROWNSVILLE    FAIR      74  68  81 SE8       30.03F
CORPUS CHRISTI PTCLDY    68  65  90 S7        30.03S
DALLAS FTW     CLOUDY    69  52  54 E6        30.05S
DEL RIO        PTCLDY    78  60  53 E9        29.95R
EL PASO        MOCLDY    77  25  14 S3        30.00R
HOUSTON INT    FAIR      71  61  70 S8        30.07R
LUBBOCK        MOCLDY    50  39  66 N25G32    30.20R
SAN ANGELO     CLEAR     70  57  63 E18G25    30.04S
SAN ANTONIO    PTCLDY    68  52  56 SE9       30.06R
WACO           CLOUDY    67  56  67 SE3       30.07R
WICHITA FALLS  CLOUDY    50  45  83 N16       30.20S
$$
...OTHER LOCATIONS IN NEW MEXICO...

CITY           SKY/WX    TMP DP  RH WIND       PRES   REMARKS
ALAMOGORDO     PTCLDY    66  16  14 CALM      30.03S
ALBUQUERQUE    MOCLDY    56  38  50 E33G44    30.11R
CANNON AFB     NOT AVBL
CLOVIS         PTCLDY    44  33  65 NE30G37   30.27R WCI  34
HOLLOMAN AFB   NOT AVBL
ROSWELL        PTCLDY    50  38  63 N23G30    30.24R
RUIDOSO        CLEAR     45  36  70 SE16      30.31R WCI  37
SANTA FE       MOCLDY    49  36  61 SE15      30.21R
TRUTH OR CONSE PTCLDY    70   5   8 W9        30.05R
TUCUMCARI      CLOUDY    48  32  53 NE23G29   30.31R
$$



USA.gov is the U.S. government's official web portal to all federal, state and local government web resources and services.